Location: Caltech
(34.1382°N, 118.1253°W)
Time: 22:58:18
(UTC-07:00)

Iridium 18 - Visible Passes

Search period start: 30 September 2014 00:00
Search period end: 10 October 2014 00:00
Orbit: 776 x 779 km, 86.4° (Epoch: 30 September)

Date Brightness Start Highest point End Pass type
(mag) Time Alt. Az. Time Alt. Az. Time Alt. Az.
30 Sep 7.5 04:36:06 10° SE 04:40:26 27° E 04:44:47 10° NNE visible
30 Sep 6.4 06:16:40 10° SW 06:21:01 27° W 06:25:24 10° NNW visible
01 Oct 8.4 04:04:33 10° ESE 04:07:12 14° E 04:09:51 10° NE visible
01 Oct 5.6 05:42:19 10° SSW 05:47:22 52° W 05:52:27 10° N visible
02 Oct 5.6 05:08:38 10° S 05:13:50 80° E 05:19:03 10° N visible
03 Oct 6.7 04:35:34 10° SSE 04:40:24 41° E 04:45:15 10° NNE visible
03 Oct 6.8 06:17:43 10° WSW 06:21:15 18° W 06:24:47 10° NW visible
04 Oct 7.8 04:03:15 10° SE 04:07:06 21° E 04:10:56 10° NE visible
04 Oct 6.1 05:42:48 10° SSW 05:47:31 35° W 05:52:15 10° NNW visible
05 Oct 8.5 03:32:55 10° E 03:33:54 11° ENE 03:34:53 10° ENE visible
05 Oct 5.4 05:08:44 10° S 05:13:54 68° W 05:19:06 10° N visible
06 Oct 5.9 04:37:03 22° SSE 04:40:24 62° E 04:45:32 10° N visible
06 Oct 7.2 06:19:34 10° W 06:21:31 12° WNW 06:23:28 10° NW visible
07 Oct 7.1 04:05:30 26° ESE 04:07:02 31° E 04:11:34 10° NNE visible
07 Oct 6.5 05:46:05 20° WSW 05:47:42 24° W 05:51:50 10° NNW visible
08 Oct 8.1 03:33:29 16° E 03:33:46 16° E 03:36:55 10° NE visible
08 Oct 5.7 05:14:02 45° W 05:14:02 45° W 05:19:00 10° NNW visible
09 Oct 5.9 04:41:44 53° N 04:41:44 53° N 04:45:41 10° N visible
